Location: Archemont
(49.1579°N, 1.7598°E)
Time: 16:53:43
(UTC+00:00)

DMSP B5D2-2 - Pass Details

Date: 03 February 2023
Orbit: 788 x 806 km, 98.3° (Epoch: 31 March)

Event Time Altitude Azimuth Distance (km) Brightness Sun altitude
Rises 17:26:45 0° 17° (NNE) 3,334 7.0 -6.0°
Reaches altitude 10° 17:29:10 10° 22° (NNE) 2,397 6.2 -6.4°
Maximum altitude 17:34:22 56° 100° (E) 951 4.2 -7.2°
Drops below altitude 10° 17:39:32 10° 179° (S) 2,371 6.7 -8.0°
Sets 17:41:53 0° 183° (S) 3,294 7.5 -8.4°
